Miscellaneous Local Product
Issued by NWS Hastings, NE

Home | Current Version | Previous Version | Text Only | Print | Product List | Glossary Off
Versions: 1 2 3 4 5 6 7 8 9 10 11 12 13 14 15 16 17 18 19 20 21 22 23 24 25 26 27 28 29 30 31 32 33 34 35 36 37 38 39 40 41 42 43 44 45 46 47 48 49 50

000
AXUS43 KGID 292002
MISGRI

GID CWA HOURLY WEATHER ROUNDUP
NATIONAL WEATHER SERVICE HASTINGS NE
300 PM CDT WED JUL 29 2015

NOTE: "FAIR" INDICATES FEW OR NO CLOUDS BELOW 12,000 FEET WITH NO
SIGNIFICANT WEATHER AND/OR OBSTRUCTIONS TO VISIBILITY.

...SOUTH CENTRAL NEBRASKA...

CITY           SKY/WX    TMP DP  RH WIND       PRES   REMARKS
GRAND ISLAND   PTSUNNY   79  51  37 E5        30.23S
HASTINGS       CLOUDY    79  50  36 N7        30.23S
KEARNEY        CLOUDY    77  52  41 SE6       30.24F
ORD            SUNNY     83  47  28 SW9       30.20F
YORK           PTSUNNY   79  57  47 N3        30.21S
AURORA         CLOUDY    78  58  49 NW3       30.22S
LEXINGTON      PTSUNNY   81  47  29 S7        30.26S
HOLDREGE       CLOUDY    76  51  42 SE3       30.26S
HEBRON         CLOUDY    83  49  29 NE9       30.19R

...NEBRASKA PANHANDLE...

CITY           SKY/WX    TMP DP  RH WIND       PRES   REMARKS
CHADRON        SUNNY     81  46  29 MISG      30.23F
ALLIANCE       SUNNY     82  47  29 S13G18    30.26F
SCOTTSBLUFF    SUNNY     83  48  29 S10       30.24F
SIDNEY         SUNNY     82  47  29 S21G28    30.30F

...WESTERN AND NORTH CENTRAL NEBRASKA...

CITY           SKY/WX    TMP DP  RH WIND       PRES   REMARKS
VALENTINE      SUNNY     86  39  19 SW10G20   30.20F
AINSWORTH      SUNNY     83  41  22 W14       30.23F
ONEILL         SUNNY     84  46  26 W12G17    30.20F
BROKEN BOW     MOSUNNY   83  50  31 W7        30.24F
IMPERIAL       SUNNY     82  46  28 S10G22    30.28F
NORTH PLATTE   SUNNY     81  52  36 SE7       30.25F
MCCOOK         MOSUNNY   80  54  40 VRB3      30.27F

...EASTERN NEBRASKA...

CITY           SKY/WX    TMP DP  RH WIND       PRES   REMARKS
NORFOLK        SUNNY     85  49  28 W12       30.17F
SO SIOUX CITY  SUNNY     83  56  39 NW14      30.13F
TEKAMAH        SUNNY     84  57  39 NW10      30.15F
COLUMBUS       SUNNY     82  52  34 NW5       30.18F
ALBION         SUNNY     85  42  22 W6        30.20S
OMAHA EPPLEY   MOSUNNY   85  54  34 NW8       30.15F
OFFUTT AFB     SUNNY     85  50  29 NW10      30.14F
MILLARD        SUNNY     84  49  29 W10       30.16F
LINCOLN        MOSUNNY   84  50  30 N9        30.18S
NEBRASKA CITY  MOSUNNY   81  52  36 N7        30.16F
BEATRICE       PTSUNNY   83  55  37 N12G17    30.16F
FALLS CITY     PTSUNNY   82  61  48 NE7       30.14F

...NORTHERN KANSAS...

CITY           SKY/WX    TMP DP  RH WIND       PRES   REMARKS
GOODLAND       PTSUNNY   78  40  25 SE12      30.30F
HILL CITY      MOSUNNY   83  53  35 VRB5      30.24F
NORTON         CLEAR     81  48  32 CALM      30.24F
PHILLIPSBURG   SUNNY     88  48  25 E3        30.22F HAZE
SMITH CENTER   SUNNY     84  50  30 E7        30.22S
HAYS           PTSUNNY   79  55  44 NE10      30.23F
RUSSELL        PTSUNNY   80  59  48 NE10      30.21S
CONCORDIA      CLOUDY    80  59  48 E9        30.20R
SALINA         CLOUDY    79  69  71 N6        30.18R
TOPEKA         PTSUNNY   82  70  66 NE9       30.13F



USA.gov is the U.S. government's official web portal to all federal, state and local government web resources and services.